Vertical_Velocity
6 -4 -15 -7 -3 -0 1 5 -7 2 3 -1 7 -5 -6 -4 -3 1 -10 -10 -3 -0 -1 -5 0 2 2 -2 1 2 1 -0 1 -3 4 0 -1 -3 -4 1 -0 -1 -1 -0
-4 -1 7 4 -2 -2 15 -4 -3 8 1 6 -1 -6 -8 -5 -1 -1 1 -2 -5 3 2 -8 -3 1 1 0 -0 -2 -0 0 1 -0 -3 -1 -0 -2 -2 -2 2 -2 -1 -2
-2 -9 17 7 -2 -5 7 -3 3 -8 -2 4 5 -11 -10 1 -2 -3 3 4 8 10 0 -10 -3 -1 1 0 1 1 -0 -0 0 4 -3 0 1 -1 0 -3 -3 -1 -1 -2
-7 3 -2 9 1 -5 -7 -2 2 4 -3 -6 -11 -7 2 -6 -3 -4 5 -0 0 2 8 8 -9 -2 2 1 3 -0 2 4 2 1 1 -0 1 1 -3 0 -0 0 1 -1
-10 0 -3 2 -5 2 3 -11 -1 -5 -2 17 -1 9 -23 6 -1 2 -4 -4 -3 0 -6 14 3 -0 -4 -4 8 -3 0 -1 2 0 -1 1 1 1 3 -0 -1 -1 0 1
-8 -3 29 10 5 16 -0 -5 1 -1 3 8 -14 4 -12 20 3 -1 -5 4 -1 2 1 2 -1 -1 -1 0 5 -4 -4 -0 3 -2 2 -2 -0 -0 -0 -1 -1 -1 0 -1
18 6 1 -9 -2 -1 12 1 5 7 3 -2 -1 12 -9 -2 -5 2 -2 -1 -9 1 2 -3 6 -4 -2 4 5 3 4 4 -0 1 3 0 2 3 -0 3 -1 -1 -0 0
0 6 3 -2 7 -5 -7 -6 -7 -3 -2 -5 -6 -5 -3 -4 -4 0 2 2 1 4 1 3 -4 1 -2 3 4 3 5 -5 -4 -14 0 3 -0 -2 -1 1 -0 -0 1 -1
1 0 1 0 -0 7 -9 15 -2 -0 -1 -0 -3 -5 -7 3 0 1 1 3 4 -2 -1 0 -2 4 3 11 4 -2 1 0 4 3 6 0 1 1 -1 -1 -1 -1 -3 0
-5 -6 7 -2 -4 -1 2 -2 -3 -7 0 1 1 -2 11 0 1 5 -0 -1 -0 1 -1 3 5 -1 -2 -3 -1 -28 -22 4 6 1 0 2 -0 -2 -2 -2 -1 -2 -3 -1
3 -2 10 1 -1 -5 -5 -5 -4 3 -4 4 1 12 9 -4 2 2 1 0 0 -2 -1 -0 -3 0 -3 1 2 0 -4 -5 -18 -14 5 2 2 -4 -2 -1 0 -2 -1 -0
-1 2 -2 5 -4 -2 0 8 -2 5 -1 0 0 6 -3 -3 -2 -1 -2 -2 -3 -1 -4 -2 -2 -3 -5 1 1 5 3 6 8 2 4 -1 -0 -0 -3 -2 -0 -2 -1 1
2 3 -1 -4 -3 -1 -7 -9 -0 4 9 -2 5 7 1 -4 1 -3 0 2 1 -6 -4 -1 -3 -1 3 0 4 3 3 2 3 -1 -2 -0 -4 -1 -2 -1 -1 -0 -0 2
-2 -1 2 0 2 -1 -6 -4 -1 5 0 -11 -9 -15 -1 -5 -4 8 10 5 -2 -5 -8 -10 -3 -4 -3 3 5 4 -2 -1 2 3 0 -0 -7 1 -3 -1 -3 -3 -2 2
-0 -1 1 2 0 -1 -3 1 3 1 -6 9 -10 1 3 7 9 -4 -5 -5 -10 -6 -0 -6 -1 -3 -3 -5 0 -1 -1 -3 -2 2 -0 -1 -2 -3 2 -1 -5 -1 1 -3
1 -1 -1 0 -1 -2 0 -1 0 4 2 4 0 -8 -8 -2 3 1 -3 -2 -1 -2 0 1 3 4 3 2 0 -2 -2 2 3 2 1 2 1 -0 -3 -0 0 -1 -0 -0
1 -0 -1 4 -1 -2 -3 2 2 3 1 1 1 12 -4 -4 -6 1 1 1 0 -1 -2 -0 1 1 -3 -0 1 -1 -1 -3 -1 -2 -3 -3 -2 -3 0 -1 -6 -4 1 0
0 1 2 0 -1 3 -0 -1 -2 -2 1 1 0 1 -2 -1 -3 1 -0 -2 -0 -0 -1 -0 -1 1 3 1 -1 -0 -2 -1 -1 -2 -0 -2 -1 0 -1 -1 -0 1 -2 1
-3 2 -2 3 0 6 -1 1 1 4 6 -2 -0 -0 1 -0 -4 3 4 3 -3 -5 -3 -1 1 -1 0 -2 2 1 -0 1 0 0 -0 0 1 0 -0 0 1 1 -2 -0
1 -0 3 -3 1 1 5 -1 -2 1 8 -2 -1 -3 -4 -2 -6 1 -1 -0 -3 -1 -2 1 2 6 4 2 4 2 3 1 2 0 0 -0 -3 -1 -1 -1 -2 -0 -1 3
-5 -2 -1 -1 1 4 -6 -5 -4 1 1 -0 -2 -1 -2 -3 0 -4 -3 1 3 1 4 1 2 3 0 2 4 2 3 3 -2 -1 -2 -2 -1 0 -2 -0 -1 0 -1 1
-0 1 -3 1 1 1 -3 -0 -1 -3 -4 -4 -1 -2 -3 1 -0 -3 2 -0 -4 -4 -1 1 2 3 1 2 4 3 4 -1 -1 -1 -1 -1 -1 -1 -1 -1 -1 1 -1 1
2 -4 -1 -6 4 -1 -1 -0 -2 -6 -2 -3 -4 -1 -5 -4 -1 -2 -4 1 1 1 -0 -1 -0 3 5 4 2 -0 -1 -0 -0 -0 -0 -2 -2 -1 1 -1 2 -4 -1 -1
-0 -1 3 3 -0 -1 2 -3 -2 -4 -3 -0 -1 -3 -1 -4 -1 -3 -3 -1 -1 1 1 -1 1 0 2 4 1 1 -0 0 -1 0 -0 1 -4 2 -0 -4 1 2 0 1
-3 1 -8 -5 2 0 0 3 -1 1 -1 -2 -1 -0 1 -6 2 -5 0 -1 -0 -0 1 3 -0 2 1 2 1 -0 1 0 -0 -2 1 7 -4 -1 -0 -3 -3 -3 -2 0
-1 -4 -4 -2 -6 -4 3 -0 0 -1 3 2 -2 4 2 -3 -1 -2 1 -1 -0 0 -0 2 2 -0 1 -1 5 2 -2 6 -2 1 3 2 2 -1 -2 -0 -0 -0 1 1
Height
3037 3044 3050 3057 3063 3070 3076 3079 3085 3090 3092 3095 3095 3099 3106 3109 3109 3110 3113 3120 3124 3129 3132 3130 3135 3138 3141 3144 3147 3150 3153 3156 3158 3160 3163 3166 3167 3169 3171 3172 3172 3173 3174 3174
3040 3046 3055 3062 3066 3069 3072 3077 3083 3089 3091 3095 3097 3100 3104 3104 3106 3107 3108 3114 3119 3125 3128 3126 3130 3134 3137 3140 3143 3146 3149 3152 3154 3155 3159 3161 3163 3165 3166 3167 3168 3168 3168 3169
3041 3047 3050 3060 3064 3068 3072 3076 3082 3088 3090 3095 3097 3097 3095 3098 3102 3103 3105 3109 3115 3119 3123 3122 3124 3128 3132 3135 3139 3141 3145 3148 3150 3152 3154 3157 3159 3160 3161 3162 3163 3163 3163 3163
3045 3047 3053 3060 3065 3070 3074 3079 3084 3088 3091 3093 3094 3092 3089 3094 3096 3098 3101 3104 3106 3109 3116 3119 3118 3123 3127 3130 3134 3136 3140 3143 3145 3148 3150 3152 3154 3155 3155 3155 3157 3157 3157 3157
3048 3049 3053 3062 3067 3072 3076 3079 3085 3089 3091 3092 3096 3097 3090 3091 3093 3096 3098 3099 3102 3104 3107 3113 3110 3117 3122 3126 3128 3133 3135 3138 3141 3143 3145 3147 3148 3149 3149 3150 3150 3151 3150 3150
3048 3052 3057 3065 3069 3072 3075 3080 3086 3090 3091 3091 3090 3092 3086 3088 3089 3091 3094 3096 3098 3100 3101 3103 3105 3110 3114 3119 3122 3127 3131 3133 3136 3138 3139 3141 3142 3142 3142 3143 3143 3143 3143 3142
3046 3052 3056 3061 3067 3072 3076 3080 3085 3089 3089 3085 3085 3088 3085 3087 3088 3088 3088 3088 3091 3095 3096 3096 3099 3102 3107 3113 3117 3120 3123 3126 3130 3131 3133 3134 3134 3135 3135 3136 3136 3136 3135 3134
3049 3052 3056 3061 3069 3072 3074 3078 3078 3079 3079 3081 3088 3087 3084 3083 3083 3083 3085 3086 3086 3089 3090 3093 3092 3096 3102 3106 3110 3113 3116 3119 3122 3124 3127 3127 3128 3129 3129 3129 3128 3128 3127 3126
3050 3054 3058 3062 3066 3072 3075 3076 3077 3078 3077 3076 3078 3080 3078 3079 3080 3081 3082 3083 3083 3085 3087 3088 3089 3094 3097 3100 3103 3107 3108 3113 3115 3117 3118 3120 3121 3121 3121 3121 3120 3119 3118 3117
3052 3058 3059 3062 3066 3070 3073 3076 3080 3080 3080 3075 3075 3077 3075 3079 3082 3082 3081 3081 3082 3082 3083 3086 3087 3089 3091 3095 3095 3097 3100 3103 3107 3109 3111 3112 3112 3113 3112 3112 3111 3110 3109 3108
3054 3057 3062 3064 3066 3069 3072 3074 3077 3079 3080 3076 3071 3073 3077 3079 3081 3080 3081 3081 3081 3081 3081 3082 3082 3083 3085 3087 3088 3090 3093 3097 3099 3101 3102 3103 3103 3104 3104 3103 3102 3101 3100 3099
3054 3056 3060 3064 3063 3065 3068 3073 3075 3077 3081 3080 3080 3078 3078 3079 3079 3080 3079 3080 3079 3078 3078 3078 3078 3077 3078 3080 3082 3083 3086 3089 3092 3093 3094 3095 3096 3096 3095 3094 3094 3093 3092 3091
3054 3056 3061 3065 3067 3066 3067 3070 3073 3075 3076 3077 3078 3076 3076 3077 3077 3077 3077 3077 3076 3073 3073 3074 3074 3073 3072 3074 3076 3076 3078 3080 3083 3086 3086 3087 3088 3088 3088 3087 3085 3084 3083 3082
3055 3057 3058 3059 3059 3061 3064 3066 3069 3073 3074 3076 3075 3076 3076 3076 3076 3076 3075 3073 3070 3069 3068 3070 3070 3069 3069 3068 3069 3070 3072 3075 3077 3079 3080 3080 3081 3080 3079 3078 3077 3076 3075 3073
3055 3056 3057 3057 3058 3059 3060 3063 3066 3067 3069 3072 3073 3073 3073 3073 3071 3069 3067 3065 3064 3064 3063 3064 3064 3064 3064 3065 3066 3067 3068 3070 3072 3073 3073 3073 3073 3072 3072 3070 3070 3069 3067 3065
3054 3056 3057 3058 3058 3059 3060 3061 3063 3065 3067 3068 3069 3068 3069 3067 3065 3063 3060 3060 3058 3056 3057 3056 3057 3057 3058 3060 3061 3062 3064 3065 3066 3066 3066 3066 3065 3065 3064 3063 3061 3060 3058 3056
3054 3055 3056 3058 3058 3058 3058 3057 3059 3061 3062 3063 3064 3066 3061 3060 3058 3057 3056 3054 3052 3050 3050 3050 3051 3052 3053 3054 3055 3057 3058 3059 3060 3060 3060 3060 3059 3058 3057 3056 3054 3053 3050 3048
3052 3054 3057 3057 3058 3058 3055 3055 3055 3057 3058 3058 3059 3058 3057 3055 3054 3054 3050 3048 3046 3044 3043 3043 3043 3045 3046 3047 3049 3051 3051 3053 3054 3054 3054 3053 3052 3050 3048 3047 3046 3044 3043 3042
3052 3055 3056 3058 3057 3056 3054 3054 3055 3056 3056 3054 3054 3053 3052 3051 3050 3051 3046 3044 3040 3037 3036 3036 3036 3037 3039 3041 3043 3045 3046 3047 3048 3048 3047 3046 3045 3043 3042 3041 3040 3038 3036 3037
3053 3054 3057 3056 3056 3052 3053 3052 3053 3053 3053 3051 3051 3050 3049 3047 3045 3045 3042 3038 3035 3031 3029 3028 3028 3030 3032 3034 3036 3038 3041 3042 3042 3042 3041 3040 3039 3038 3037 3036 3035 3033 3032 3033
3054 3055 3055 3055 3055 3053 3050 3051 3051 3053 3054 3048 3048 3047 3045 3043 3042 3038 3035 3034 3031 3026 3023 3022 3023 3024 3026 3028 3030 3032 3035 3036 3036 3036 3035 3035 3034 3033 3032 3031 3031 3029 3029 3029
3052 3053 3053 3053 3053 3051 3048 3049 3050 3048 3045 3044 3043 3041 3039 3038 3036 3034 3031 3028 3025 3022 3019 3018 3018 3020 3022 3024 3026 3028 3029 3030 3030 3030 3029 3029 3028 3027 3027 3027 3027 3026 3027 3027
3050 3049 3049 3051 3049 3046 3046 3045 3044 3042 3041 3039 3037 3035 3032 3029 3028 3026 3024 3023 3022 3019 3017 3014 3014 3015 3017 3020 3021 3022 3023 3024 3024 3023 3023 3022 3022 3022 3022 3023 3023 3025 3025 3025
3046 3046 3047 3046 3044 3043 3043 3042 3040 3036 3034 3032 3030 3027 3025 3021 3019 3016 3016 3016 3015 3015 3014 3012 3011 3011 3013 3014 3015 3016 3017 3017 3017 3017 3016 3015 3015 3017 3018 3019 3020 3020 3022 3022
3044 3044 3044 3044 3043 3041 3040 3038 3034 3031 3029 3025 3022 3020 3018 3014 3012 3008 3008 3010 3009 3009 3009 3009 3008 3008 3008 3009 3010 3010 3010 3010 3010 3009 3009 3006 3008 3010 3011 3013 3015 3016 3017 3018
3040 3039 3040 3039 3038 3036 3035 3031 3028 3025 3023 3020 3016 3015 3013 3008 3005 3003 3001 3002 3003 3003 3003 3003 3003 3002 3002 3003 3003 3003 3001 3001 3002 3002 3002 3003 3004 3004 3005 3007 3008 3010 3012 3013